Location: Unspecified
(51.0171°N, 0.0000°E)
Time: 04:32:23
(UTC+00:00)

FORMOSAT 3C - Visible Passes

Search period start: 04 April 2026 00:00
Search period end: 14 April 2026 00:00
Orbit: 763 x 812 km, 72.0° (Epoch: 29 March)

Date Brightness Start Highest point End Pass type
(mag) Time Alt. Az. Time Alt. Az. Time Alt. Az.
4 Apr ? 00:11:26 15° ENE 00:11:26 15° ENE 00:12:59 10° ENE visible
4 Apr ? 01:52:05 72° N 01:52:05 72° N 01:56:58 10° NNE visible
4 Apr ? 03:32:44 16° WNW 03:35:08 21° NW 03:39:10 10° N visible
5 Apr ? 01:21:10 56° NE 01:21:10 56° NE 01:25:30 10° NNE visible
5 Apr ? 03:01:48 22° WNW 03:03:24 26° NW 03:07:54 10° NNE visible
6 Apr ? 00:50:13 40° ENE 00:50:13 40° ENE 00:53:57 10° NE visible
6 Apr ? 02:30:51 31° WNW 02:31:42 33° NW 02:36:35 10° NNE visible
6 Apr ? 04:14:43 10° NW 04:16:16 11° NNW 04:17:49 10° N visible
7 Apr ? 00:19:14 29° ENE 00:19:14 29° ENE 00:22:19 10° NE visible
7 Apr ? 01:59:53 42° WNW 02:00:05 43° NW 02:05:14 10° NNE visible
7 Apr ? 03:41:49 10° WNW 03:44:21 13° NNW 03:46:54 10° N visible
7 Apr ? 23:48:14 21° ENE 23:48:14 21° ENE 23:50:34 10° NE visible
8 Apr ? 01:28:53 55° NW 01:28:53 55° NW 01:33:51 10° NNE visible
8 Apr ? 03:09:32 11° WNW 03:12:29 16° NNW 03:15:47 10° N visible
8 Apr ? 23:17:13 15° ENE 23:17:13 15° ENE 23:18:38 10° NE visible
9 Apr ? 00:57:52 62° N 00:57:52 62° N 01:02:25 10° NNE visible
9 Apr ? 02:38:30 16° WNW 02:40:40 20° NW 02:44:34 10° N visible
9 Apr ? 22:46:10 10° ENE 22:46:10 10° ENE 22:46:18 10° ENE visible
10 Apr ? 00:26:49 53° NE 00:26:49 53° NE 00:30:58 10° NNE visible
10 Apr ? 02:07:27 22° WNW 02:08:54 24° NW 02:13:19 10° NNE visible
10 Apr ? 23:55:44 41° ENE 23:55:44 41° ENE 23:59:26 10° NE visible
11 Apr ? 01:36:22 29° WNW 01:37:12 31° NW 01:42:00 10° NNE visible
11 Apr ? 03:20:38 10° NW 03:21:50 11° NNW 03:23:04 10° N visible
11 Apr ? 23:24:37 31° ENE 23:24:37 31° ENE 23:27:50 10° NE visible
12 Apr ? 01:05:16 39° WNW 01:05:32 40° NW 01:10:39 10° NNE visible
12 Apr ? 02:47:34 10° NW 02:49:54 13° NNW 02:52:15 10° N visible
12 Apr ? 22:53:29 23° ENE 22:53:29 23° ENE 22:56:06 10° NE visible
13 Apr ? 00:34:07 52° NW 00:34:07 52° NW 00:39:16 10° NNE visible
13 Apr ? 02:14:55 10° WNW 02:18:01 15° NNW 02:21:09 10° N visible
13 Apr ? 22:22:19 17° ENE 22:22:19 17° ENE 22:24:14 10° NE visible
